Location: ??? ?????
(30.6482°N, 60.5850°E)
Time: 18:39:07
(UTC+00:00)

SL-16 R/B - Pass Details

Date: 09 April 2020
Orbit: 840 x 849 km, 71.0° (Epoch: 06 June)

Event Time Altitude Azimuth Distance (km) Brightness Sun altitude
Rises 23:25:01 0° 338° (NNW) 3,401 5.4 -27.3°
Reaches altitude 10° 23:27:27 10° 338° (NNW) 2,465 4.7 -26.9°
Maximum altitude 23:33:07 81° 252° (WSW) 858 2.0 -25.8°
Drops below altitude 10° 23:38:46 10° 165° (SSE) 2,458 4.5 -24.7°
Sets 23:41:12 0° 165° (SSE) 3,391 5.2 -24.2°
